Franklin, NC

3:41 PM EDT on July 21, 2017 (GMT -0400)
Franklin

Weather History for K1A5 - January, 2014

Change the Weather History Date:

Friday, January 17, 2014

  Actual Average (KTOC) Record (KTOC)
Temperature  
Mean Temperature 33 °F -  
Max Temperature 47 °F 51 °F 69 °F (2017)
Min Temperature 19 °F 29 °F 27 °F (2014)
Degree Days  
Heating Degree Days 32    
Moisture  
Dew Point 17 °F    
Average Humidity 57    
Maximum Humidity 89    
Minimum Humidity 23    
Precipitation  
Precipitation 0.00 in - - ()
Sea Level Pressure  
Sea Level Pressure 29.92 in    
Wind  
Wind Speed 4 mph (WNW)    
Max Wind Speed 25 mph    
Max Gust Speed 34 mph    
Visibility 10 miles    
Events Snow    
Averages and records for this station are not official NWS values.
T = Trace of Precipitation, MM = Missing Value Source: NWS Daily Summary

Daily Weather History Graph

Daily Weather History Graph

Search for Another Location

Airport or City:

Trip Planner

Search our weather history database for the weather conditions in past years. The results will help you decide how hot, cold, wet, or windy it might be!

Date:

Astronomy

Jan. 17, 2014 Rise Set
Actual Time 7:41 AM EST 5:46 PM EST
Civil Twilight 7:13 AM EST 6:14 PM EST
Nautical Twilight 6:42 AM EST 6:45 PM EST
Astronomical Twilight 6:12 AM EST 7:15 PM EST
Moon 7:26 PM EST (1/17) 8:13 AM EST (1/17)
Length of Visible Light 11h 00m
Length of Day
10h 05m
Full, 98% of the Moon is Illuminated
Jan 17
Full
Jan 24
Last Quarter
Jan 30
New
Feb 6
First Quarter
Feb 14
Full

Hourly Weather History & Observations

Time (EST) Temp. Windchill Dew Point Humidity Pressure Visibility Wind Dir Wind Speed Gust Speed Precip Events Conditions
12:15 AM 30.7 °F 24.9 °F 15.8 °F 54% 29.97 in 10.0 mi ENE 5.8 mph - N/A   Overcast
12:35 AM 30.9 °F - 13.5 °F 48% 29.96 in 10.0 mi Calm Calm - N/A   Mostly Cloudy
12:55 AM 29.1 °F 25.4 °F 15.3 °F 56% 29.95 in 10.0 mi ENE 3.5 mph - N/A   Scattered Clouds
1:15 AM 28.8 °F 22.6 °F 15.6 °F 58% 29.94 in 10.0 mi ENE 5.8 mph - N/A   Mostly Cloudy
1:35 AM 28.0 °F - 17.2 °F 64% 29.94 in 10.0 mi Calm Calm - N/A   Scattered Clouds
1:55 AM 26.4 °F - 17.6 °F 69% 29.93 in 10.0 mi Calm Calm - N/A   Clear
2:15 AM 26.2 °F - 18.7 °F 73% 29.93 in 10.0 mi Calm Calm - N/A   Scattered Clouds
2:35 AM 27.7 °F - 18.5 °F 68% 29.93 in 10.0 mi Calm Calm - N/A   Mostly Cloudy
2:55 AM 26.4 °F - 17.8 °F 70% 29.93 in 10.0 mi Calm Calm - N/A   Mostly Cloudy
3:15 AM 26.8 °F - 19.6 °F 74% 29.94 in 10.0 mi Calm Calm - N/A   Mostly Cloudy
3:35 AM 26.1 °F - 18.1 °F 72% 29.92 in 10.0 mi Calm Calm - N/A   Mostly Cloudy
3:55 AM 26.1 °F - 18.9 °F 74% 29.92 in 10.0 mi Calm Calm - N/A   Scattered Clouds
4:15 AM 25.3 °F - 19.0 °F 77% 29.91 in 10.0 mi Calm Calm - N/A   Mostly Cloudy
4:35 AM 24.8 °F - 18.9 °F 78% 29.91 in 10.0 mi Calm Calm - N/A   Scattered Clouds
4:55 AM 24.1 °F - 19.4 °F 82% 29.91 in 10.0 mi Calm Calm - N/A   Scattered Clouds
5:15 AM 24.8 °F - 20.5 °F 84% 29.91 in 10.0 mi Calm Calm - N/A   Scattered Clouds
5:35 AM 22.6 °F - 18.3 °F 83% 29.91 in 10.0 mi Calm Calm - N/A   Scattered Clouds
5:55 AM 22.6 °F - 18.1 °F 83% 29.92 in 10.0 mi Calm Calm - N/A   Clear
6:15 AM 21.2 °F - 17.1 °F 84% 29.93 in 10.0 mi Calm Calm - N/A   Clear
6:35 AM 21.2 °F - 18.0 °F 87% 29.92 in 10.0 mi Calm Calm - N/A   Clear
6:55 AM 20.5 °F - 17.4 °F 88% 29.93 in 10.0 mi Calm Calm - N/A   Clear
7:15 AM 20.3 °F - 17.2 °F 88% 29.94 in 10.0 mi Calm Calm - N/A   Clear
7:35 AM 19.9 °F - 16.5 °F 87% 29.94 in 10.0 mi Calm Calm - N/A   Clear
7:55 AM 20.1 °F - 17.1 °F 88% 29.95 in 10.0 mi Calm Calm - N/A   Clear
8:15 AM 20.3 °F - 17.4 °F 89% 29.94 in 10.0 mi Calm Calm - N/A   Clear
8:35 AM 22.1 °F - 19.0 °F 88% 29.94 in 10.0 mi Calm Calm - N/A   Clear
8:55 AM 24.4 °F - 19.6 °F 82% 29.94 in 10.0 mi Calm Calm - N/A   Clear
9:15 AM 26.4 °F - 20.7 °F 79% 29.95 in 10.0 mi Calm Calm - N/A   Clear
9:35 AM 30.0 °F - 20.8 °F 69% 29.94 in 10.0 mi Calm Calm - N/A   Clear
9:55 AM 33.1 °F - 22.8 °F 66% 29.94 in 10.0 mi Calm Calm - N/A   Clear
10:15 AM 36.0 °F - 21.7 °F 56% 29.94 in 10.0 mi Calm Calm - N/A   Clear
10:35 AM 38.5 °F - 22.1 °F 52% 29.93 in 10.0 mi Calm Calm - N/A   Clear
10:55 AM 42.4 °F - 22.1 °F 44% 29.92 in 10.0 mi Calm Calm - N/A   Clear
11:15 AM 43.0 °F - 18.1 °F 37% 29.92 in 10.0 mi Calm Calm - N/A   Clear
11:35 AM 45.0 °F 40.1 °F 14.0 °F 29% 29.90 in 10.0 mi SW 9.2 mph 23.0 mph N/A   Scattered Clouds
11:55 AM 46.0 °F 38.8 °F 15.6 °F 30% 29.89 in 10.0 mi WSW 18.4 mph 26.5 mph N/A   Scattered Clouds
12:15 PM 46.0 °F 41.9 °F 15.1 °F 29% 29.87 in 10.0 mi WSW 8.1 mph - N/A   Scattered Clouds
12:35 PM 45.9 °F 37.8 °F 14.4 °F 28% 29.86 in 10.0 mi WSW 21.9 mph 34.5 mph N/A   Scattered Clouds
12:55 PM 47.1 °F - 15.1 °F 28% 29.84 in 10.0 mi SSW 11.5 mph 20.7 mph N/A   Scattered Clouds
1:15 PM 46.0 °F 42.5 °F 15.3 °F 29% 29.83 in 10.0 mi SW 6.9 mph 17.3 mph N/A   Mostly Cloudy
1:35 PM 46.6 °F - 12.7 °F 26% 29.83 in 10.0 mi SW 12.7 mph 23.0 mph N/A   Mostly Cloudy
1:55 PM 46.2 °F 42.2 °F 12.9 °F 26% 29.81 in 10.0 mi WSW 8.1 mph 21.9 mph N/A   Mostly Cloudy
2:15 PM 46.4 °F 40.1 °F 12.4 °F 25% 29.81 in 10.0 mi WSW 15.0 mph 21.9 mph N/A   Scattered Clouds
2:35 PM 45.3 °F 38.4 °F 9.9 °F 24% 29.82 in 10.0 mi WSW 16.1 mph 33.4 mph N/A   Scattered Clouds
2:55 PM 45.1 °F 36.2 °F 9.5 °F 23% 29.83 in 10.0 mi West 25.3 mph 32.2 mph N/A   Clear
3:15 PM 44.6 °F 37.8 °F 11.1 °F 26% 29.84 in 10.0 mi WSW 15.0 mph 25.3 mph N/A   Clear
3:35 PM 43.5 °F 36.4 °F 12.0 °F 28% 29.84 in 10.0 mi West 15.0 mph 21.9 mph N/A   Scattered Clouds
3:55 PM 41.7 °F 35.6 °F 14.5 °F 33% 29.85 in 10.0 mi WSW 10.4 mph 31.1 mph N/A   Scattered Clouds
4:15 PM 42.6 °F 36.8 °F 13.1 °F 30% 29.86 in 10.0 mi WSW 10.4 mph 21.9 mph N/A   Mostly Cloudy
4:35 PM 41.2 °F 35.5 °F 13.5 °F 32% 29.87 in 10.0 mi West 9.2 mph - N/A   Mostly Cloudy
4:55 PM 40.3 °F 31.9 °F 12.0 °F 32% 29.88 in 10.0 mi WSW 16.1 mph - N/A   Overcast
5:15 PM 39.2 °F 35.0 °F 10.8 °F 31% 29.88 in 10.0 mi SW 5.8 mph 18.4 mph N/A   Mostly Cloudy
5:35 PM 38.5 °F 32.7 °F 13.5 °F 36% 29.89 in 10.0 mi WNW 8.1 mph - N/A   Mostly Cloudy
5:55 PM 37.6 °F 29.1 °F 13.6 °F 38% 29.90 in 10.0 mi West 13.8 mph 24.2 mph N/A   Overcast
6:15 PM 36.7 °F 28.0 °F 13.5 °F 39% 29.92 in 10.0 mi West 13.8 mph 19.6 mph N/A   Overcast
6:35 PM 36.0 °F 26.3 °F 13.8 °F 40% 29.92 in 10.0 mi West 16.1 mph 25.3 mph N/A   Overcast
6:55 PM 33.8 °F 27.7 °F 18.0 °F 52% 29.94 in 10.0 mi NW 6.9 mph - N/A   Overcast
7:15 PM 32.5 °F 27.1 °F 19.2 °F 58% 29.95 in 10.0 mi NW 5.8 mph - N/A   Mostly Cloudy
7:35 PM 32.4 °F 27.9 °F 19.0 °F 58% 29.96 in 10.0 mi West 4.6 mph - N/A   Mostly Cloudy
7:55 PM 32.0 °F 25.6 °F 19.2 °F 59% 29.96 in 10.0 mi NNW 6.9 mph - N/A   Overcast
8:15 PM 31.5 °F 25.8 °F 20.8 °F 65% 29.98 in 10.0 mi NNW 5.8 mph - N/A   Overcast
8:35 PM 31.3 °F 26.6 °F 19.2 °F 61% 29.97 in 10.0 mi NNW 4.6 mph - N/A   Overcast
8:55 PM 29.8 °F 19.3 °F 21.4 °F 71% 29.98 in 5.0 mi North 13.8 mph 17.3 mph N/A Snow Light Snow
9:15 PM 28.2 °F 20.2 °F 22.5 °F 79% 29.98 in 1.8 mi North 8.1 mph - N/A Snow Light Snow
9:35 PM 27.5 °F 18.6 °F 20.3 °F 74% 29.98 in 3.0 mi NNW 9.2 mph 17.3 mph N/A Snow Light Snow
9:55 PM 26.4 °F 20.9 °F 20.1 °F 77% 29.99 in 2.5 mi NNW 4.6 mph - N/A Snow Light Snow
10:15 PM 26.2 °F 20.7 °F 17.8 °F 70% 30.00 in 4.0 mi NNW 4.6 mph - N/A Snow Light Snow
10:35 PM 26.4 °F 19.8 °F 15.4 °F 63% 29.99 in 7.0 mi NNW 5.8 mph - N/A Snow Light Snow
10:55 PM 26.4 °F 19.8 °F 12.9 °F 57% 29.99 in 10.0 mi NW 5.8 mph - N/A   Overcast
11:15 PM 26.4 °F 18.9 °F 11.3 °F 53% 29.99 in 10.0 mi West 6.9 mph - N/A   Overcast
11:35 PM 25.7 °F 19.0 °F 10.6 °F 53% 29.99 in 10.0 mi North 5.8 mph - N/A   Overcast
11:55 PM 25.2 °F 14.4 °F 10.2 °F 53% 29.98 in 10.0 mi NNW 11.5 mph - N/A   Overcast